• Processing (Info)

  • MPEC 2015-R93 : 2015 RB36

    The following Minor Planet Electronic Circular may be linked-to from your own Web pages, but must not otherwise be redistributed electronically.

    A form allowing access to any MPEC is at the bottom of this page.


    Read MPEC 2015-R92 Read MPEC 2015-R94


    M.P.E.C. 2015-R93                                Issued 2015 Sept. 13, 15:28 UT
    
         The Minor Planet Electronic Circulars contain information on unusual
             minor planets and routine data on comets.  They are published
        on behalf of Division F of the International Astronomical Union by the
              Minor Planet Center, Smithsonian Astrophysical Observatory,
                              Cambridge, MA 02138, U.S.A.
    
                 Prepared using the Tamkin Foundation Computer Network
    
                                  MPC@CFA.HARVARD.EDU
                URL https://www.minorplanetcenter.net/    ISSN 1523-6714
    
                                       2015 RB36
    
    Observations:
         K15R36B* C2015 09 09.41069 23 10 17.748-02 15 10.50         21.8 wLER093F51
         K15R36B  C2015 09 09.42284 23 10 20.004-02 15 24.58         21.8 wLER093F51
         K15R36B  C2015 09 09.43501 23 10 22.237-02 15 39.07         21.9 wLER093F51
         K15R36B KC2015 09 10.21763023 13 01.95 -02 30 56.8          21.8 VuER093H21
         K15R36B KC2015 09 10.23272423 13 04.71 -02 31 13.9          21.9 VuER093H21
         K15R36B KC2015 09 10.24714823 13 07.39 -02 31 30.5          22.2 VuER093H21
         K15R36B _C2015 09 10.40512423 13 39.561-02 34 14.15         21.5 RtER093568
         K15R36B _C2015 09 10.40641023 13 39.796-02 34 15.73         21.4 RtER093568
         K15R36B _C2015 09 10.40772923 13 40.030-02 34 17.24         21.4 RtER093568
         K15R36B  C2015 09 12.39125 23 20 02.228-03 10 33.62         21.8 wLER093F51
         K15R36B  C2015 09 12.39191 23 20 02.327-03 10 34.30         21.7 wLER093F51
         K15R36B  C2015 09 12.40302 23 20 04.185-03 10 46.06         21.7 wLER093F51
         K15R36B  C2015 09 12.40366 23 20 04.283-03 10 46.80         21.8 wLER093F51
         K15R36B  C2015 09 12.41476 23 20 06.120-03 10 58.63         21.7 wLER093F51
         K15R36B  C2015 09 12.41540 23 20 06.228-03 10 59.45         21.9 wLER093F51
         K15R36B  C2015 09 12.42652 23 20 08.064-03 11 11.15         21.8 wLER093F51
         K15R36B  C2015 09 12.42716 23 20 08.176-03 11 11.79         21.9 wLER093F51
    
    Observer details:
    568 Mauna Kea.  Observers R. J. Wainscoat, D. Woodworth.  Measurers M. Micheli,
        R. J. Wainscoat.  3.6-m Canada-France-Hawaii Telescope + CCD.
    F51 Pan-STARRS 1, Haleakala.  Observers B. Gibson, T. Goggia, N. Primak,
        A. Schultz, M. Willman.  Measurers K. Chambers, S. Chastel, L. Denneau,
        H. Flewelling, M. Huber, E. Lilly, E. Magnier, R. Wainscoat, C. Waters,
        R. Weryk.  1.8-m Ritchey-Chretien + CCD.
    H21 Astronomical Research Observatory, Westfield.  Observer R. Holmes.
        Measurers S. Foglia, L. Buzzi, T. Linder, R. Holmes.  1.3-m f/4.0
        astrograph + CCD.
    
    Orbital elements:
    2015 RB36                                                Earth MOID = 0.1297 AU
    Epoch 2015 June 27.0 TT = JDT 2457200.5                 MPC
    M 344.69776              (2000.0)            P               Q
    n   0.30823455     Peri.  151.39730     +0.79151300     +0.61099828
    a   2.1704436      Node   170.90307     -0.57595053     +0.75324422
    e   0.4772442      Incl.    4.97868     -0.20442150     +0.24352464
    P   3.20           H   25.1           G   0.15           U   7
    Residuals in seconds of arc
    150909 F51  0.0   0.1+    150910 568  0.1-  0.1-    150912 F51  0.0   0.1+
    150909 F51  0.1+  0.2+    150910 568  0.0   0.2-    150912 F51  0.0   0.0
    150909 F51  0.1-  0.1-    150910 568  0.0   0.2-    150912 F51  0.0   0.1-
    150910 H21  0.2-  0.2-    150912 F51  0.0   0.0     150912 F51  0.0   0.0
    150910 H21  0.3-  0.1-    150912 F51  0.2-  0.1+    150912 F51  0.1+  0.0
    150910 H21  0.3+  0.3-    150912 F51  0.1+  0.1+
    
    Ephemeris:
    2015 RB36                a,e,i = 2.17, 0.48, 5                   q = 1.1346
    Date    TT    R. A. (2000) Decl.     Delta      r     Elong.  Phase     V
    2015 08 14    21 06 29.4 +06 49 25   0.1303  1.1347   157.6    19.9    21.9
    ...
    2015 08 29    22 23 18.9 +01 53 55   0.1367  1.1443   168.4    10.2    21.7
    ...
    2015 09 06    22 57 51.2 -01 05 21   0.1516  1.1591   174.4     4.9    21.7
    ...
    2015 09 12    23 18 48.1 -03 03 14   0.1678  1.1744   178.6     1.2    21.7
    2015 09 13    23 21 53.1 -03 20 50   0.1709  1.1772   179.3     0.6    21.7
    2015 09 14    23 24 51.5 -03 37 48   0.1741  1.1802   179.8     0.2    21.7
    ...
    2015 09 20    23 40 33.9 -05 05 24   0.1957  1.1998   175.9     3.4    22.3
    ...
    2015 09 28    23 56 45.9 -06 24 30   0.2308  1.2305   170.6     7.7    22.9
    ...
    2015 10 13    00 17 44.6 -07 12 32   0.3158  1.2996   160.3    15.0    24.0
    
    A. U. Tomatic                (C) Copyright 2015 MPC           M.P.E.C. 2015-R93
    

    Read MPEC 2015-R92 Read MPEC 2015-R94


    MPEC number:

    Enter an MPEC number in one of the following forms:

    • 1997-B01 (the full form)
    • J97B01 (the packed version of the full form)
    • B01 (the abbreviated form)